Location: Dackenheim
(49.5215°N, 8.1854°E)
Time: 12:05:43
(UTC+00:00)

BlueWalker 3 - Pass Details

Date: 26 January 2026
Orbit: 451 x 460 km, 53.2° (Epoch: 17 February)

Event Time Altitude Azimuth Distance (km) Brightness Sun altitude
Rises 17:36:34 0° 248° (WSW) 2,453 7.3 -13.5°
Reaches altitude 10° 17:38:42 10° 249° (WSW) 1,582 5.9 -13.8°
Maximum altitude 17:42:15 83° 336° (NNW) 460 1.7 -14.4°
Enters shadow 17:43:58 29° 63° (ENE) 863 2.6 -14.7°
